Weather in Kas

Turkey     36°11′55″N   29°38′24″E
temp.,
°C
wind,
m/s
gust,
m/s
humid.,
%
clouds,
%
prec.,
mm/h
press.,
hPa
HPBL,
m
8 march, mon
mon800:00+10nnw22660 0.0 101642
03:00+9n11650 0.0 101565
06:00+8n11680 0.0 101589
09:00+11n12536 0.0 1015123
12:00+14ssw33500 0.0 1016988
15:00+16s234410 0.0 1014753
18:00+13ne135698 0.0 1014391
21:00+10wnw126098 0.0 101542
9 march, tue
tue900:00+9nnw224372 0.0 101539
03:00+9nne235685 0.0 101547
06:00+8ne127469 0.0 101469
09:00+11ese226885 0.0 1015220
12:00+14ene3457100 0.0 1015450
15:00+14ese3363100 0.1 1014550
18:00+12e347696 0.0 1014394
21:00+9ene228648 0.1 101597
10 march, wed
wed1000:00+10nne23764 0.0 101578
03:00+10nne236452 0.0 101466
06:00+10nne235570 0.0 101370
09:00+14ne244836 0.0 1013216
12:00+16ese454718 0.0 1012606
15:00+16ese45579 0.0 1011630
18:00+14e22650 0.0 1010384
21:00+11nw117711 0.0 101123
11 march, thu
thu1100:00+10nw227763 0.0 101248
03:00+10nnw226947 0.0 101234
06:00+10nnw226448 0.0 101134
09:00+14n115658 0.0 1011110
12:00+17sw2352100 0.0 1011851
15:00+18w8105053 0.0 10101403
18:00+15w811540 0.0 10091154
21:00+11wnw57730 0.0 1009208
12 march, fri
fri1200:00+10wnw45690 0.0 1010133
03:00+10n45640 0.0 1011137
06:00+7nnw33590 0.0 101372
09:00+10n34410 0.0 1016193
12:00+15s33310 0.0 1017890
15:00+14sw66590 0.0 1017632
18:00+12ssw34690 0.0 1017340
21:00+8w22810 0.0 101874